This is the latest recevied weather packets stored in our database for station/object K7KAR-2. If no packets are shown the sender has not sent any weather packets the latest 10 day(s).
| Time | Temp. | Humidity | Pressure | Rain* | Wind** | Luminosity | Snow |
|---|---|---|---|---|---|---|---|
| 1788484309 | 27.78° C | 20% | 1008.6 hPa | 0 mm | - | 38 W/m² | - |
| 1788484004 | 27.78° C | 20% | 1008.4 hPa | 0 mm | - | 42 W/m² | - |
| 1788483701 | 27.78° C | 20% | 1008.3 hPa | 0 mm | - | 46 W/m² | - |
| 1788483401 | 27.22° C | 20% | 1008.5 hPa | 0 mm | - | 50 W/m² | - |
| 1788483097 | 27.78° C | 20% | 1008.5 hPa | 0 mm | - | 47 W/m² | - |
| 1788482792 | 27.78° C | 19% | 1008.6 hPa | 0 mm | - | 53 W/m² | - |
| 1788482492 | 28.33° C | 19% | 1008.5 hPa | 0 mm | - | 56 W/m² | - |
| 1788482188 | 28.33° C | 19% | 1008.5 hPa | 0 mm | - | 63 W/m² | - |
| 1788481884 | 28.33° C | 19% | 1008.5 hPa | 0 mm | - | 74 W/m² | - |
| 1788481579 | 28.89° C | 18% | 1008.5 hPa | 0 mm | - | 65 W/m² | - |
| 1788481274 | 27.78° C | 18% | 1008.5 hPa | 0 mm | - | 95 W/m² | - |
| 1788480969 | 28.33° C | 19% | 1008.4 hPa | 0 mm | - | 111 W/m² | - |
| 1788480668 | 27.78° C | 19% | 1008.6 hPa | 0 mm | - | 126 W/m² | - |
| 1788480363 | 27.78° C | 19% | 1008.6 hPa | 0 mm | - | 51 W/m² | - |
| 1788480059 | 28.33° C | 19% | 1008.4 hPa | 0 mm | - | 48 W/m² | - |
| 1788479758 | 27.78° C | 19% | 1008.4 hPa | 0 mm | - | 186 W/m² | - |
| 1788479455 | 28.33° C | 18% | 1008.5 hPa | 0 mm | - | 58 W/m² | - |
| 1788479150 | 27.78° C | 19% | 1008.5 hPa | 0 mm | - | 221 W/m² | - |
| 1788478845 | 27.78° C | 19% | 1008.6 hPa | 0 mm | - | 92 W/m² | - |
| 1788478541 | 27.22° C | 20% | 1008.5 hPa | 0 mm | - | 78 W/m² | - |
| 1788478237 | 27.78° C | 19% | 1008.7 hPa | 0 mm | - | 59 W/m² | - |
| 1788477932 | 28.89° C | 18% | 1008.4 hPa | 0 mm | - | 71 W/m² | - |
| 1788477627 | 28.89° C | 18% | 1008.6 hPa | 0 mm | - | 329 W/m² | - |
| 1788477321 | 29.44° C | 18% | 1008.5 hPa | 0 mm | - | 340 W/m² | - |
| 1788477015 | 28.89° C | 18% | 1008.4 hPa | 0 mm | - | 357 W/m² | - |
* Rain latest hour (hover to see other rain measurements)
** Current wind speed in m/s (hover to see current wind gust speed)